AC1-001

导读

AC1-001卫星计划于2025年11月28日发射,截至目前(2026年3月3日),其发射任务已顺利完成。该卫星发射国家暂定为“待确定”(TBD),在公开资料中尚未披露其详细研发背景、任务目标及技术参数,这也为其后续动向增添了一丝神秘感。作为一颗计划内的人造卫星,AC1-001的后续运行情况或将在航天领域引发持续关注。

Basic Information
目录编号:
66744
目录名称:
AC1-001
国际标识:
2025-276CG
轨道中心:
EARTH
卫星名称:
AC1-001
卫星全名:
AC1-001
卫星状态:
在轨 (已飞行281 天)
发射日期:
2025-11-28 UTC
国别 :
英国 (GB)
星等 :
--
Orbit Information
数据来源 国际轨道数据
星历时间: 2026-09-05T12:05:51+0800
13小时前
查看轨道信息
半长轴: 6888.092km
偏心率: 0.0004478
轨道倾角: 97.414°
近地点辐角 87.238°
升交点赤经 319.985°
平近点角 272.937°
近地点: 506.87km
远地点: 513.04km
周期: 94.822分钟
每日圈数: 15.186385
Detailed Information
使用方式:
暂无
2D Orbit Map
3D Orbit Map
Orbit Altitude Analysis Chart
Orbit Inclination Analysis Chart
Orbit Comprehensive Analysis Chart
View Comprehensive Chart